Year,Month,Day,Hour,Minute,Value (Times are PST for temperature in C)
2009,05,17,00,00,10.80
2009,05,17,00,01,10.80
2009,05,17,00,02,10.80
2009,05,17,00,03,10.80
2009,05,17,00,04,10.80
2009,05,17,00,05,10.80
2009,05,17,00,06,10.70
2009,05,17,00,07,10.70
2009,05,17,00,08,10.70
2009,05,17,00,09,10.70
2009,05,17,00,10,10.70
2009,05,17,00,11,10.60
2009,05,17,00,12,10.60
2009,05,17,00,13,10.60
2009,05,17,00,14,10.60
2009,05,17,00,15,10.60
2009,05,17,00,16,10.60
2009,05,17,00,17,10.60
2009,05,17,00,18,10.60
2009,05,17,00,19,10.60
2009,05,17,00,20,10.60
2009,05,17,00,21,10.60
2009,05,17,00,22,10.60
2009,05,17,00,23,10.60
2009,05,17,00,24,10.60
2009,05,17,00,25,10.50
2009,05,17,00,26,10.40
2009,05,17,00,27,10.40
2009,05,17,00,28,10.40
2009,05,17,00,29,10.40
2009,05,17,00,30,10.40
2009,05,17,00,31,10.40
2009,05,17,00,32,10.40
2009,05,17,00,33,10.40
2009,05,17,00,34,10.40
2009,05,17,00,35,10.40
2009,05,17,00,36,10.40
2009,05,17,00,37,10.40
2009,05,17,00,38,10.40
2009,05,17,00,39,10.40
2009,05,17,00,40,10.40
2009,05,17,00,41,10.40
2009,05,17,00,42,10.40
2009,05,17,00,43,10.40
2009,05,17,00,44,10.40
2009,05,17,00,45,10.40
2009,05,17,00,46,10.40
2009,05,17,00,47,10.40
2009,05,17,00,48,10.40
2009,05,17,00,49,10.40
2009,05,17,00,50,10.30
2009,05,17,00,51,10.30
2009,05,17,00,52,10.30
2009,05,17,00,53,10.30
2009,05,17,00,54,10.30
2009,05,17,00,55,10.20
2009,05,17,00,56,10.20
2009,05,17,00,57,10.10
2009,05,17,00,58,10.10
2009,05,17,00,59,10.10
2009,05,17,01,00,10.00
2009,05,17,01,01,9.90
2009,05,17,01,02,9.90
2009,05,17,01,03,9.90
2009,05,17,01,04,9.90
2009,05,17,01,05,9.90
2009,05,17,01,06,9.90
2009,05,17,01,07,9.90
2009,05,17,01,08,9.90
2009,05,17,01,09,9.90
2009,05,17,01,10,9.90
2009,05,17,01,11,9.90
2009,05,17,01,12,9.90
2009,05,17,01,13,9.90
2009,05,17,01,14,9.90
2009,05,17,01,15,9.90
2009,05,17,01,16,9.90
2009,05,17,01,17,9.90
2009,05,17,01,18,9.90
2009,05,17,01,19,9.90
2009,05,17,01,20,9.90
2009,05,17,01,21,9.90
2009,05,17,01,22,9.90
2009,05,17,01,23,9.90
2009,05,17,01,24,9.90
2009,05,17,01,25,9.90
2009,05,17,01,26,9.90
2009,05,17,01,27,9.90
2009,05,17,01,28,9.90
2009,05,17,01,29,10.00
2009,05,17,01,30,10.10
2009,05,17,01,31,10.10
2009,05,17,01,32,10.10
2009,05,17,01,33,10.10
2009,05,17,01,34,10.10
2009,05,17,01,35,10.10
2009,05,17,01,36,10.10
2009,05,17,01,37,10.20
2009,05,17,01,38,10.20
2009,05,17,01,39,10.20
2009,05,17,01,40,10.30
2009,05,17,01,41,10.30
2009,05,17,01,42,10.30
2009,05,17,01,43,10.40
2009,05,17,01,44,10.40
2009,05,17,01,45,10.40
2009,05,17,01,46,10.40
2009,05,17,01,47,10.40
2009,05,17,01,48,10.40
2009,05,17,01,49,10.40
2009,05,17,01,50,10.40
2009,05,17,01,51,10.40
2009,05,17,01,52,10.40
2009,05,17,01,53,10.40
2009,05,17,01,54,10.40
2009,05,17,01,55,10.40
2009,05,17,01,56,10.40
2009,05,17,01,57,10.40
2009,05,17,01,58,10.40
2009,05,17,01,59,10.30
2009,05,17,02,00,10.30
2009,05,17,02,01,10.30
2009,05,17,02,02,10.30
2009,05,17,02,03,10.30
2009,05,17,02,04,10.30
2009,05,17,02,05,10.20
2009,05,17,02,06,10.20
2009,05,17,02,07,10.20
2009,05,17,02,08,10.20
2009,05,17,02,09,10.20
2009,05,17,02,10,10.20
2009,05,17,02,11,10.10
2009,05,17,02,12,10.10
2009,05,17,02,13,10.10
2009,05,17,02,14,10.10
2009,05,17,02,15,10.10
2009,05,17,02,16,10.10
2009,05,17,02,17,10.10
2009,05,17,02,18,10.10
2009,05,17,02,19,10.10
2009,05,17,02,20,10.00
2009,05,17,02,21,9.90
2009,05,17,02,22,9.90
2009,05,17,02,23,9.90
2009,05,17,02,24,9.90
2009,05,17,02,25,9.90
2009,05,17,02,26,9.90
2009,05,17,02,27,9.90
2009,05,17,02,28,9.90
2009,05,17,02,29,9.90
2009,05,17,02,30,9.90
2009,05,17,02,31,9.90
2009,05,17,02,32,9.90
2009,05,17,02,33,9.90
2009,05,17,02,34,9.90
2009,05,17,02,35,9.90
2009,05,17,02,36,9.90
2009,05,17,02,37,9.90
2009,05,17,02,38,9.90
2009,05,17,02,39,9.90
2009,05,17,02,40,9.90
2009,05,17,02,41,9.90
2009,05,17,02,42,9.90
2009,05,17,02,43,9.90
2009,05,17,02,44,10.00
2009,05,17,02,45,10.10
2009,05,17,02,46,10.20
2009,05,17,02,47,10.10
2009,05,17,02,48,10.10
2009,05,17,02,49,10.00
2009,05,17,02,50,9.90
2009,05,17,02,51,9.90
2009,05,17,02,52,9.90
2009,05,17,02,53,9.90
2009,05,17,02,54,9.90
2009,05,17,02,55,9.90
2009,05,17,02,56,9.90
2009,05,17,02,57,9.90
2009,05,17,02,58,10.00
2009,05,17,02,59,10.10
2009,05,17,03,00,10.10
2009,05,17,03,01,10.10
2009,05,17,03,02,10.10
2009,05,17,03,03,10.10
2009,05,17,03,04,10.20
2009,05,17,03,05,10.20
2009,05,17,03,06,10.20
2009,05,17,03,07,10.20
2009,05,17,03,08,10.20
2009,05,17,03,09,10.20
2009,05,17,03,10,10.20
2009,05,17,03,11,10.20
2009,05,17,03,12,10.20
2009,05,17,03,13,10.30
2009,05,17,03,14,10.30
2009,05,17,03,15,10.30
2009,05,17,03,16,10.30
2009,05,17,03,17,10.30
2009,05,17,03,18,10.30
2009,05,17,03,19,10.30
2009,05,17,03,20,10.30
2009,05,17,03,21,10.20
2009,05,17,03,22,10.20
2009,05,17,03,23,10.20
2009,05,17,03,24,10.20
2009,05,17,03,25,10.20
2009,05,17,03,26,10.20
2009,05,17,03,27,10.20
2009,05,17,03,28,10.20
2009,05,17,03,29,10.20
2009,05,17,03,30,10.20
2009,05,17,03,31,10.20
2009,05,17,03,32,10.20
2009,05,17,03,33,10.20
2009,05,17,03,34,10.10
2009,05,17,03,35,10.10
2009,05,17,03,36,10.10
2009,05,17,03,37,10.10
2009,05,17,03,38,10.10
2009,05,17,03,39,10.10
2009,05,17,03,40,10.10
2009,05,17,03,41,10.10
2009,05,17,03,42,10.10
2009,05,17,03,43,10.10
2009,05,17,03,44,10.10
2009,05,17,03,45,10.10
2009,05,17,03,46,10.10
2009,05,17,03,47,10.10
2009,05,17,03,48,10.10
2009,05,17,03,49,10.10
2009,05,17,03,50,10.10
2009,05,17,03,51,10.10
2009,05,17,03,52,10.10
2009,05,17,03,53,10.10
2009,05,17,03,54,10.10
2009,05,17,03,55,10.10
2009,05,17,03,56,10.10
2009,05,17,03,57,10.10
2009,05,17,03,58,10.00
2009,05,17,03,59,9.90
2009,05,17,04,00,9.90
2009,05,17,04,01,9.90
2009,05,17,04,02,9.90
2009,05,17,04,03,9.90
2009,05,17,04,04,9.90
2009,05,17,04,05,9.90
2009,05,17,04,06,9.90
2009,05,17,04,07,9.90
2009,05,17,04,08,9.90
2009,05,17,04,09,9.90
2009,05,17,04,10,9.90
2009,05,17,04,11,9.90
2009,05,17,04,12,9.90
2009,05,17,04,13,9.90
2009,05,17,04,14,9.90
2009,05,17,04,15,9.90
2009,05,17,04,16,9.90
2009,05,17,04,17,9.90
2009,05,17,04,18,9.90
2009,05,17,04,19,9.90
2009,05,17,04,20,9.90
2009,05,17,04,21,9.90
2009,05,17,04,22,9.90
2009,05,17,04,23,9.90
2009,05,17,04,24,10.00
2009,05,17,04,25,10.10
2009,05,17,04,26,10.10
2009,05,17,04,27,10.10
2009,05,17,04,28,10.10
2009,05,17,04,29,10.10
2009,05,17,04,30,10.10
2009,05,17,04,31,10.10
2009,05,17,04,32,10.10
2009,05,17,04,33,10.10
2009,05,17,04,34,10.10
2009,05,17,04,35,10.10
2009,05,17,04,36,10.10
2009,05,17,04,37,10.10
2009,05,17,04,38,10.10
2009,05,17,04,39,10.10
2009,05,17,04,40,10.10
2009,05,17,04,41,10.00
2009,05,17,04,42,10.00
2009,05,17,04,43,9.90
2009,05,17,04,44,9.90
2009,05,17,04,45,9.90
2009,05,17,04,46,9.90
2009,05,17,04,47,9.90
2009,05,17,04,48,9.90
2009,05,17,04,49,9.90
2009,05,17,04,50,9.80
2009,05,17,04,51,9.80
2009,05,17,04,52,9.70
2009,05,17,04,53,9.70
2009,05,17,04,54,9.70
2009,05,17,04,55,9.70
2009,05,17,04,56,9.70
2009,05,17,04,57,9.60
2009,05,17,04,58,9.60
2009,05,17,04,59,9.60
2009,05,17,05,00,9.70
2009,05,17,05,01,9.70
2009,05,17,05,02,9.70
2009,05,17,05,03,9.70
2009,05,17,05,04,9.70
2009,05,17,05,05,9.70
2009,05,17,05,06,9.70
2009,05,17,05,07,9.70
2009,05,17,05,08,9.70
2009,05,17,05,09,9.70
2009,05,17,05,10,9.70
2009,05,17,05,11,9.70
2009,05,17,05,12,9.70
2009,05,17,05,13,9.70
2009,05,17,05,14,9.70
2009,05,17,05,15,9.70
2009,05,17,05,16,9.70
2009,05,17,05,17,9.70
2009,05,17,05,18,9.70
2009,05,17,05,19,9.70
2009,05,17,05,20,9.70
2009,05,17,05,21,9.70
2009,05,17,05,22,9.80
2009,05,17,05,23,9.80
2009,05,17,05,24,9.80
2009,05,17,05,25,9.80
2009,05,17,05,26,9.90
2009,05,17,05,27,9.90
2009,05,17,05,28,9.90
2009,05,17,05,29,9.90
2009,05,17,05,30,10.00
2009,05,17,05,31,10.10
2009,05,17,05,32,10.10
2009,05,17,05,33,10.20
2009,05,17,05,34,10.30
2009,05,17,05,35,10.30
2009,05,17,05,36,10.30
2009,05,17,05,37,10.30
2009,05,17,05,38,10.30
2009,05,17,05,39,10.30
2009,05,17,05,40,10.30
2009,05,17,05,41,10.30
2009,05,17,05,42,10.30
2009,05,17,05,43,10.30
2009,05,17,05,44,10.30
2009,05,17,05,45,10.30
2009,05,17,05,46,10.20
2009,05,17,05,47,10.20
2009,05,17,05,48,10.20
2009,05,17,05,49,10.20
2009,05,17,05,50,10.20
2009,05,17,05,51,10.20
2009,05,17,05,52,10.20
2009,05,17,05,53,10.20
2009,05,17,05,54,10.20
2009,05,17,05,55,10.20
2009,05,17,05,56,10.20
2009,05,17,05,57,10.20
2009,05,17,05,58,10.20
2009,05,17,05,59,10.30
2009,05,17,06,00,10.30
2009,05,17,06,01,10.30
2009,05,17,06,02,10.30
2009,05,17,06,03,10.30
2009,05,17,06,04,10.30
2009,05,17,06,05,10.40
2009,05,17,06,06,10.40
2009,05,17,06,07,10.40
2009,05,17,06,08,10.40
2009,05,17,06,09,10.40
2009,05,17,06,10,10.60
2009,05,17,06,11,10.60
2009,05,17,06,12,10.60
2009,05,17,06,13,10.70
2009,05,17,06,14,10.70
2009,05,17,06,15,10.80
2009,05,17,06,16,10.80
2009,05,17,06,17,10.90
2009,05,17,06,18,10.90
2009,05,17,06,19,10.90
2009,05,17,06,20,11.00
2009,05,17,06,21,11.10
2009,05,17,06,22,11.10
2009,05,17,06,23,11.10
2009,05,17,06,24,11.10
2009,05,17,06,25,11.10
2009,05,17,06,26,11.10
2009,05,17,06,27,11.10
2009,05,17,06,28,11.10
2009,05,17,06,29,11.10
2009,05,17,06,30,11.10
2009,05,17,06,31,11.10
2009,05,17,06,32,11.10
2009,05,17,06,33,11.10
2009,05,17,06,34,11.20
2009,05,17,06,35,11.20
2009,05,17,06,36,11.20
2009,05,17,06,37,11.30
2009,05,17,06,38,11.30
2009,05,17,06,39,11.40
2009,05,17,06,40,11.40
2009,05,17,06,41,11.40
2009,05,17,06,42,11.40
2009,05,17,06,43,11.40
2009,05,17,06,44,11.40
2009,05,17,06,45,11.40
2009,05,17,06,46,11.40
2009,05,17,06,47,11.40
2009,05,17,06,48,11.40
2009,05,17,06,49,11.40
2009,05,17,06,50,11.40
2009,05,17,06,51,11.40
2009,05,17,06,52,11.40
2009,05,17,06,53,11.40
2009,05,17,06,54,11.40
2009,05,17,06,55,11.50
2009,05,17,06,56,11.60
2009,05,17,06,57,11.60
2009,05,17,06,58,11.60
2009,05,17,06,59,11.60
2009,05,17,07,00,11.60
2009,05,17,07,01,11.60
2009,05,17,07,02,11.60
2009,05,17,07,03,11.70
2009,05,17,07,04,11.70
2009,05,17,07,05,11.80
2009,05,17,07,06,11.80
2009,05,17,07,07,11.90
2009,05,17,07,08,11.90
2009,05,17,07,09,12.00
2009,05,17,07,10,12.00
2009,05,17,07,11,12.10
2009,05,17,07,12,12.20
2009,05,17,07,13,12.30
2009,05,17,07,14,12.30
2009,05,17,07,15,12.40
2009,05,17,07,16,12.50
2009,05,17,07,17,12.60
2009,05,17,07,18,12.60
2009,05,17,07,19,12.70
2009,05,17,07,20,12.80
2009,05,17,07,21,12.80
2009,05,17,07,22,12.80
2009,05,17,07,23,12.90
2009,05,17,07,24,12.90
2009,05,17,07,25,13.00
2009,05,17,07,26,13.00
2009,05,17,07,27,13.10
2009,05,17,07,28,13.20
2009,05,17,07,29,13.20
2009,05,17,07,30,13.30
2009,05,17,07,31,13.30
2009,05,17,07,32,13.40
2009,05,17,07,33,13.40
2009,05,17,07,34,13.50
2009,05,17,07,35,13.60
2009,05,17,07,36,13.60
2009,05,17,07,37,13.70
2009,05,17,07,38,13.70
2009,05,17,07,39,13.80
2009,05,17,07,40,13.90
2009,05,17,07,41,14.00
2009,05,17,07,42,14.10
2009,05,17,07,43,14.20
2009,05,17,07,44,14.20
2009,05,17,07,45,14.20
2009,05,17,07,46,14.30
2009,05,17,07,47,14.40
2009,05,17,07,48,14.40
2009,05,17,07,49,14.50
2009,05,17,07,50,14.60
2009,05,17,07,51,14.60
2009,05,17,07,52,14.70
2009,05,17,07,53,14.70
2009,05,17,07,54,14.80
2009,05,17,07,55,14.80
2009,05,17,07,56,14.80
2009,05,17,07,57,14.80
2009,05,17,07,58,14.90
2009,05,17,07,59,14.90
2009,05,17,08,00,15.00
2009,05,17,08,01,15.00
2009,05,17,08,02,15.00
2009,05,17,08,03,15.10
2009,05,17,08,04,15.10
2009,05,17,08,05,15.10
2009,05,17,08,06,15.20
2009,05,17,08,07,15.20
2009,05,17,08,08,15.30
2009,05,17,08,09,15.30
2009,05,17,08,10,15.40
2009,05,17,08,11,15.50
2009,05,17,08,12,15.50
2009,05,17,08,13,15.50
2009,05,17,08,14,15.60
2009,05,17,08,15,15.60
2009,05,17,08,16,15.50
2009,05,17,08,17,15.60
2009,05,17,08,18,15.60
2009,05,17,08,19,15.60
2009,05,17,08,20,15.60
2009,05,17,08,21,15.70
2009,05,17,08,22,15.70
2009,05,17,08,23,15.80
2009,05,17,08,24,15.80
2009,05,17,08,25,15.80
2009,05,17,08,26,15.90
2009,05,17,08,27,16.00
2009,05,17,08,28,16.10
2009,05,17,08,29,16.10
2009,05,17,08,30,16.10
2009,05,17,08,31,16.00
2009,05,17,08,32,15.90
2009,05,17,08,33,15.80
2009,05,17,08,34,15.80
2009,05,17,08,35,15.80
2009,05,17,08,36,15.80
2009,05,17,08,37,15.90
2009,05,17,08,38,15.90
2009,05,17,08,39,16.00
2009,05,17,08,40,16.10
2009,05,17,08,41,16.20
2009,05,17,08,42,16.30
2009,05,17,08,43,16.40
2009,05,17,08,44,16.50
2009,05,17,08,45,16.50
2009,05,17,08,46,16.40
2009,05,17,08,47,16.40
2009,05,17,08,48,16.40
2009,05,17,08,49,16.40
2009,05,17,08,50,16.40
2009,05,17,08,51,16.40
2009,05,17,08,52,16.50
2009,05,17,08,53,16.60
2009,05,17,08,54,16.70
2009,05,17,08,55,16.80
2009,05,17,08,56,16.90
2009,05,17,08,57,17.00
2009,05,17,08,58,17.10
2009,05,17,08,59,17.20
2009,05,17,09,00,17.40
2009,05,17,09,01,17.50
2009,05,17,09,02,17.60
2009,05,17,09,03,17.70
2009,05,17,09,04,17.70
2009,05,17,09,05,17.60
2009,05,17,09,06,17.50
2009,05,17,09,07,17.50
2009,05,17,09,08,17.50
2009,05,17,09,09,17.50
2009,05,17,09,10,17.50
2009,05,17,09,11,17.50
2009,05,17,09,12,17.50
2009,05,17,09,13,17.60
2009,05,17,09,14,17.50
2009,05,17,09,15,17.50
2009,05,17,09,16,17.50
2009,05,17,09,17,17.50
2009,05,17,09,18,17.60
2009,05,17,09,19,17.60
2009,05,17,09,20,17.70
2009,05,17,09,21,17.70
2009,05,17,09,22,17.70
2009,05,17,09,23,17.80
2009,05,17,09,24,17.90
2009,05,17,09,25,17.90
2009,05,17,09,26,18.10
2009,05,17,09,27,18.20
2009,05,17,09,28,18.20
2009,05,17,09,29,18.30
2009,05,17,09,30,18.30
2009,05,17,09,31,18.30
2009,05,17,09,32,18.20
2009,05,17,09,33,18.30
2009,05,17,09,34,18.30
2009,05,17,09,35,18.20
2009,05,17,09,36,18.20
2009,05,17,09,37,18.20
2009,05,17,09,38,18.10
2009,05,17,09,39,18.20
2009,05,17,09,40,18.20
2009,05,17,09,41,18.20
2009,05,17,09,42,18.20
2009,05,17,09,43,18.30
2009,05,17,09,44,18.40
2009,05,17,09,45,18.50
2009,05,17,09,46,18.60
2009,05,17,09,47,18.60
2009,05,17,09,48,18.70
2009,05,17,09,49,18.80
2009,05,17,09,50,18.90
2009,05,17,09,51,18.90
2009,05,17,09,52,18.80
2009,05,17,09,53,18.90
2009,05,17,09,54,18.90
2009,05,17,09,55,18.90
2009,05,17,09,56,18.80
2009,05,17,09,57,18.70
2009,05,17,09,58,18.70
2009,05,17,09,59,18.60
2009,05,17,10,00,18.50
2009,05,17,10,01,18.50
2009,05,17,10,02,18.40
2009,05,17,10,03,18.40
2009,05,17,10,04,18.40
2009,05,17,10,05,18.40
2009,05,17,10,06,18.40
2009,05,17,10,07,18.40
2009,05,17,10,08,18.50
2009,05,17,10,09,18.50
2009,05,17,10,10,18.50
2009,05,17,10,11,18.50
2009,05,17,10,12,18.50
2009,05,17,10,13,18.60
2009,05,17,10,14,18.60
2009,05,17,10,15,18.70
2009,05,17,10,16,18.60
2009,05,17,10,17,18.70
2009,05,17,10,18,18.70
2009,05,17,10,19,18.70
2009,05,17,10,20,18.70
2009,05,17,10,21,18.70
2009,05,17,10,22,18.70
2009,05,17,10,23,18.80
2009,05,17,10,24,18.80
2009,05,17,10,25,18.80
2009,05,17,10,26,18.90
2009,05,17,10,27,18.90
2009,05,17,10,28,19.00
2009,05,17,10,29,19.10
2009,05,17,10,30,19.20
2009,05,17,10,31,19.30
2009,05,17,10,32,19.30
2009,05,17,10,33,19.30
2009,05,17,10,34,19.30
2009,05,17,10,35,19.30
2009,05,17,10,36,19.30
2009,05,17,10,37,19.30
2009,05,17,10,38,19.30
2009,05,17,10,39,19.30
2009,05,17,10,40,19.30
2009,05,17,10,41,19.30
2009,05,17,10,42,19.30
2009,05,17,10,43,19.30
2009,05,17,10,44,19.20
2009,05,17,10,45,19.10
2009,05,17,10,46,19.10
2009,05,17,10,47,19.10
2009,05,17,10,48,19.10
2009,05,17,10,49,19.10
2009,05,17,10,50,19.10
2009,05,17,10,51,19.20
2009,05,17,10,52,19.20
2009,05,17,10,53,19.10
2009,05,17,10,54,19.20
2009,05,17,10,55,19.10
2009,05,17,10,56,18.80
2009,05,17,10,57,18.70
2009,05,17,10,58,18.60
2009,05,17,10,59,18.60
2009,05,17,11,00,18.40
2009,05,17,11,01,18.30
2009,05,17,11,02,18.20
2009,05,17,11,03,18.30
2009,05,17,11,04,18.40
2009,05,17,11,05,18.50
2009,05,17,11,06,18.70
2009,05,17,11,07,18.80
2009,05,17,11,08,18.90
2009,05,17,11,09,19.00
2009,05,17,11,10,19.10
2009,05,17,11,11,19.10
2009,05,17,11,12,19.10
2009,05,17,11,13,19.10
2009,05,17,11,14,19.10
2009,05,17,11,15,19.10
2009,05,17,11,16,19.10
2009,05,17,11,17,19.10
2009,05,17,11,18,19.20
2009,05,17,11,19,19.10
2009,05,17,11,20,19.10
2009,05,17,11,21,19.10
2009,05,17,11,22,19.30
2009,05,17,11,23,19.40
2009,05,17,11,24,19.40
2009,05,17,11,25,19.60
2009,05,17,11,26,19.60
2009,05,17,11,27,19.60
2009,05,17,11,28,19.50
2009,05,17,11,29,19.40
2009,05,17,11,30,19.30
2009,05,17,11,31,19.30
2009,05,17,11,32,19.40
2009,05,17,11,33,19.40
2009,05,17,11,34,19.50
2009,05,17,11,35,19.60
2009,05,17,11,36,19.60
2009,05,17,11,37,19.70
2009,05,17,11,38,19.70
2009,05,17,11,39,19.80
2009,05,17,11,40,19.90
2009,05,17,11,41,19.90
2009,05,17,11,42,20.10
2009,05,17,11,43,20.20
2009,05,17,11,44,20.20
2009,05,17,11,45,20.20
2009,05,17,11,46,20.10
2009,05,17,11,47,19.90
2009,05,17,11,48,19.90
2009,05,17,11,49,20.00
2009,05,17,11,50,20.10
2009,05,17,11,51,20.20
2009,05,17,11,52,20.20
2009,05,17,11,53,20.40
2009,05,17,11,54,20.50
2009,05,17,11,55,20.40
2009,05,17,11,56,20.50
2009,05,17,11,57,20.50
2009,05,17,11,58,20.40
2009,05,17,11,59,20.40
2009,05,17,12,00,20.50
2009,05,17,12,01,20.40
2009,05,17,12,02,20.30
2009,05,17,12,03,20.40
2009,05,17,12,04,20.50
2009,05,17,12,05,20.70
2009,05,17,12,06,20.80
2009,05,17,12,07,20.80
2009,05,17,12,08,20.90
2009,05,17,12,09,20.80
2009,05,17,12,10,20.80
2009,05,17,12,11,20.90
2009,05,17,12,12,20.80
2009,05,17,12,13,20.70
2009,05,17,12,14,20.80
2009,05,17,12,15,20.80
2009,05,17,12,16,20.80
2009,05,17,12,17,20.80
2009,05,17,12,18,20.80
2009,05,17,12,19,20.70
2009,05,17,12,20,20.60
2009,05,17,12,21,20.30
2009,05,17,12,22,20.20
2009,05,17,12,23,20.00
2009,05,17,12,24,19.90
2009,05,17,12,25,19.90
2009,05,17,12,26,19.90
2009,05,17,12,27,19.80
2009,05,17,12,28,19.90
2009,05,17,12,29,19.90
2009,05,17,12,30,19.90
2009,05,17,12,31,20.00
2009,05,17,12,32,20.10
2009,05,17,12,33,19.90
2009,05,17,12,34,20.00
2009,05,17,12,35,20.10
2009,05,17,12,36,20.20
2009,05,17,12,37,20.20
2009,05,17,12,38,20.20
2009,05,17,12,39,20.20
2009,05,17,12,40,20.10
2009,05,17,12,41,19.90
2009,05,17,12,42,19.70
2009,05,17,12,43,19.50
2009,05,17,12,44,19.40
2009,05,17,12,45,19.40
2009,05,17,12,46,19.40
2009,05,17,12,47,19.50
2009,05,17,12,48,19.60
2009,05,17,12,49,19.70
2009,05,17,12,50,19.70
2009,05,17,12,51,19.60
2009,05,17,12,52,19.60
2009,05,17,12,53,19.40
2009,05,17,12,54,19.30
2009,05,17,12,55,19.30
2009,05,17,12,56,19.40
2009,05,17,12,57,19.50
2009,05,17,12,58,19.70
2009,05,17,12,59,19.70
2009,05,17,13,00,19.60
2009,05,17,13,01,19.50
2009,05,17,13,02,19.60
2009,05,17,13,03,19.80
2009,05,17,13,04,19.80
2009,05,17,13,05,20.00
2009,05,17,13,06,20.20
2009,05,17,13,07,20.20
2009,05,17,13,08,20.20
2009,05,17,13,09,20.20
2009,05,17,13,10,20.20
2009,05,17,13,11,20.10
2009,05,17,13,12,19.90
2009,05,17,13,13,19.90
2009,05,17,13,14,19.90
2009,05,17,13,15,20.00
2009,05,17,13,16,20.10
2009,05,17,13,17,20.20
2009,05,17,13,18,20.40
2009,05,17,13,19,20.50
2009,05,17,13,20,20.60
2009,05,17,13,21,20.50
2009,05,17,13,22,20.60
2009,05,17,13,23,20.70
2009,05,17,13,24,20.80
2009,05,17,13,25,20.90
2009,05,17,13,26,21.00
2009,05,17,13,27,21.10
2009,05,17,13,28,21.10
2009,05,17,13,29,21.10
2009,05,17,13,30,21.20
2009,05,17,13,31,21.20
2009,05,17,13,32,21.20
2009,05,17,13,33,21.10
2009,05,17,13,34,21.10
2009,05,17,13,35,21.00
2009,05,17,13,36,20.90
2009,05,17,13,37,20.90
2009,05,17,13,38,21.00
2009,05,17,13,39,21.00
2009,05,17,13,40,21.10
2009,05,17,13,41,21.10
2009,05,17,13,42,21.10
2009,05,17,13,43,21.10
2009,05,17,13,44,21.20
2009,05,17,13,45,21.30
2009,05,17,13,46,21.30
2009,05,17,13,47,21.40
2009,05,17,13,48,21.40
2009,05,17,13,49,21.30
2009,05,17,13,50,21.40
2009,05,17,13,51,21.40
2009,05,17,13,52,21.50
2009,05,17,13,53,21.60
2009,05,17,13,54,21.70
2009,05,17,13,55,21.80
2009,05,17,13,56,21.70
2009,05,17,13,57,21.70
2009,05,17,13,58,21.60
2009,05,17,13,59,21.60
2009,05,17,14,00,21.60
2009,05,17,14,01,21.60
2009,05,17,14,02,21.60
2009,05,17,14,03,21.70
2009,05,17,14,04,21.80
2009,05,17,14,05,21.80
2009,05,17,14,06,21.80
2009,05,17,14,07,21.80
2009,05,17,14,08,21.80
2009,05,17,14,09,21.90
2009,05,17,14,10,21.90
2009,05,17,14,11,22.00
2009,05,17,14,12,21.90
2009,05,17,14,13,21.90
2009,05,17,14,14,22.00
2009,05,17,14,15,22.10
2009,05,17,14,16,22.20
2009,05,17,14,17,22.30
2009,05,17,14,18,22.30
2009,05,17,14,19,22.30
2009,05,17,14,20,22.30
2009,05,17,14,21,22.40
2009,05,17,14,22,22.30
2009,05,17,14,23,22.20
2009,05,17,14,24,22.00
2009,05,17,14,25,21.90
2009,05,17,14,26,22.00
2009,05,17,14,27,22.00
2009,05,17,14,28,22.00
2009,05,17,14,29,21.90
2009,05,17,14,30,21.80
2009,05,17,14,31,21.70
2009,05,17,14,32,21.60
2009,05,17,14,33,21.60
2009,05,17,14,34,21.70
2009,05,17,14,35,21.80
2009,05,17,14,36,21.90
2009,05,17,14,37,22.00
2009,05,17,14,38,22.00
2009,05,17,14,39,22.10
2009,05,17,14,40,22.10
2009,05,17,14,41,22.10
2009,05,17,14,42,22.10
2009,05,17,14,43,22.10
2009,05,17,14,44,22.10
2009,05,17,14,45,22.20
2009,05,17,14,46,22.30
2009,05,17,14,47,22.30
2009,05,17,14,48,22.30
2009,05,17,14,49,22.10
2009,05,17,14,50,22.00
2009,05,17,14,51,21.90
2009,05,17,14,52,21.80
2009,05,17,14,53,21.90
2009,05,17,14,54,21.90
2009,05,17,14,55,21.90
2009,05,17,14,56,21.90
2009,05,17,14,57,22.00
2009,05,17,14,58,22.00
2009,05,17,14,59,22.10
2009,05,17,15,00,22.10
2009,05,17,15,01,22.10
2009,05,17,15,02,22.00
2009,05,17,15,03,22.00
2009,05,17,15,04,21.90
2009,05,17,15,05,21.90
2009,05,17,15,06,21.80
2009,05,17,15,07,21.70
2009,05,17,15,08,21.80
2009,05,17,15,09,21.80
2009,05,17,15,10,21.90
2009,05,17,15,11,22.00
2009,05,17,15,12,22.10
2009,05,17,15,13,22.10
2009,05,17,15,14,22.10
2009,05,17,15,15,22.10
2009,05,17,15,16,22.10
2009,05,17,15,17,22.10
2009,05,17,15,18,22.10
2009,05,17,15,19,22.20
2009,05,17,15,20,22.20
2009,05,17,15,21,22.30
2009,05,17,15,22,22.40
2009,05,17,15,23,22.30
2009,05,17,15,24,22.40
2009,05,17,15,25,22.30
2009,05,17,15,26,22.30
2009,05,17,15,27,22.30
2009,05,17,15,28,22.30
2009,05,17,15,29,22.20
2009,05,17,15,30,22.10
2009,05,17,15,31,22.10
2009,05,17,15,32,22.10
2009,05,17,15,33,22.10
2009,05,17,15,34,22.00
2009,05,17,15,35,21.90
2009,05,17,15,36,21.80
2009,05,17,15,37,21.60
2009,05,17,15,38,21.60
2009,05,17,15,39,21.40
2009,05,17,15,40,21.30
2009,05,17,15,41,21.30
2009,05,17,15,42,21.30
2009,05,17,15,43,21.30
2009,05,17,15,44,21.30
2009,05,17,15,45,21.30
2009,05,17,15,46,21.50
2009,05,17,15,47,21.60
2009,05,17,15,48,21.60
2009,05,17,15,49,21.70
2009,05,17,15,50,21.80
2009,05,17,15,51,21.90
2009,05,17,15,52,21.90
2009,05,17,15,53,21.90
2009,05,17,15,54,21.80
2009,05,17,15,55,21.90
2009,05,17,15,56,21.90
2009,05,17,15,57,21.90
2009,05,17,15,58,21.90
2009,05,17,15,59,21.80
2009,05,17,16,00,21.80
2009,05,17,16,01,21.80
2009,05,17,16,02,21.70
2009,05,17,16,03,21.70
2009,05,17,16,04,21.60
2009,05,17,16,05,21.70
2009,05,17,16,06,21.70
2009,05,17,16,07,21.70
2009,05,17,16,08,21.60
2009,05,17,16,09,21.50
2009,05,17,16,10,21.50
2009,05,17,16,11,21.50
2009,05,17,16,12,21.50
2009,05,17,16,13,21.60
2009,05,17,16,14,21.60
2009,05,17,16,15,21.60
2009,05,17,16,16,21.70
2009,05,17,16,17,21.70
2009,05,17,16,18,21.90
2009,05,17,16,19,22.00
2009,05,17,16,20,22.20
2009,05,17,16,21,22.30
2009,05,17,16,22,22.30
2009,05,17,16,23,22.30
2009,05,17,16,24,22.20
2009,05,17,16,25,22.20
2009,05,17,16,26,22.20
2009,05,17,16,27,22.30
2009,05,17,16,28,22.40
2009,05,17,16,29,22.40
2009,05,17,16,30,22.40
2009,05,17,16,31,22.40
2009,05,17,16,32,22.40
2009,05,17,16,33,22.40
2009,05,17,16,34,22.30
2009,05,17,16,35,22.30
2009,05,17,16,36,22.20
2009,05,17,16,37,22.10
2009,05,17,16,38,22.00
2009,05,17,16,39,22.00
2009,05,17,16,40,22.10
2009,05,17,16,41,22.10
2009,05,17,16,42,22.10
2009,05,17,16,43,22.10
2009,05,17,16,44,22.20
2009,05,17,16,45,22.20
2009,05,17,16,46,22.20
2009,05,17,16,47,22.20
2009,05,17,16,48,22.10
2009,05,17,16,49,22.10
2009,05,17,16,50,22.00
2009,05,17,16,51,22.00
2009,05,17,16,52,22.00
2009,05,17,16,53,21.80
2009,05,17,16,54,21.70
2009,05,17,16,55,21.70
2009,05,17,16,56,21.70
2009,05,17,16,57,21.70
2009,05,17,16,58,21.60
2009,05,17,16,59,21.60
2009,05,17,17,00,21.60
2009,05,17,17,01,21.60
2009,05,17,17,02,21.50
2009,05,17,17,03,21.40
2009,05,17,17,04,21.30
2009,05,17,17,05,21.30
2009,05,17,17,06,21.30
2009,05,17,17,07,21.30
2009,05,17,17,08,21.30
2009,05,17,17,09,21.20
2009,05,17,17,10,21.10
2009,05,17,17,11,21.00
2009,05,17,17,12,21.00
2009,05,17,17,13,21.00
2009,05,17,17,14,21.00
2009,05,17,17,15,21.10
2009,05,17,17,16,21.20
2009,05,17,17,17,21.20
2009,05,17,17,18,21.20
2009,05,17,17,19,21.20
2009,05,17,17,20,21.20
2009,05,17,17,21,21.10
2009,05,17,17,22,21.10
2009,05,17,17,23,21.10
2009,05,17,17,24,21.00
2009,05,17,17,25,21.00